Weather in Warangal

India     17°58′48″N   79°36′02″E
temp.,
°C
wind,
m/s
gust,
m/s
humid.,
%
clouds,
%
prec.,
mm/h
press.,
hPa
HPBL,
m
18 april, sun
sun1823:30+31s46245 0.0 1010106
02:30+28s510575 0.0 1009325
05:30+27s5106320 0.0 1010357
08:30+31s57425 0.0 1013747
11:30+37s53245 0.0 10112086
14:30+38sse431831 0.0 10073285
17:30+38sse231858 0.0 10061617
20:30+33sse34255 0.0 100863
19 april, mon
mon1923:30+31ssw410335 0.0 1009207
02:30+29ssw5114355 0.0 1007300
05:30+28s5104785 0.0 1008293
08:30+33ssw593228 0.0 1010869
11:30+39sw44205 0.0 10073004
14:30+41sw341551 0.0 10033723
17:30+38s221836 0.0 10041946
20:30+33sw373018 0.0 1006132
20 april, tue
tue2023:30+33sse6103024 0.0 1007471
02:30+29s612535 0.0 1005366
05:30+27s396867 0.0 1006270
08:30+33s67385 0.0 1008676
11:30+40ssw32201 0.0 10062687
14:30+41sse321472 0.0 10024083
17:30+40ese331635 0.0 10011243
20:30+34sse10123451 0.1 1006581
21 april, wed
wed2123:30+29se411525 0.1 1008533
02:30+28ssw6115221 0.0 1006361
05:30+26e11634 0.0 100827
08:30+31s57530 0.0 1010626
11:30+38s33290 0.0 10082363
14:30+39s2321100 0.1 10043350
17:30+29nw81245100 1.1 1007400
20:30+29sse7114950 1.6 1009353
22 april, thu
thu2223:30+28ene345751 1.6 1011375
02:30+27ssw385689 0.0 1008221
05:30+27s365993 0.0 1008118
08:30+32ssw564368 0.0 1010701
11:30+38s12246 0.0 10092330
14:30+40nne441884 0.0 10053985
17:30+32ssw8639100 0.9 1006521
20:30+30se81241100 1.6 1008284